Location: Quaker Farms
(41.4276°N, 73.1557°W)
Time: 02:08:48
(UTC+00:00)

Vanguard 1 - Pass Details

Date: 20 June 2021
Orbit: 651 x 3831 km, 34.2° (Epoch: 28 July)

Event Time Altitude Azimuth Distance (km) Brightness Sun altitude
Rises 04:30:59 0° 263° (W) 7,924 14.7 -24.9°
Reaches altitude 10° 04:36:44 10° 262° (W) 6,735 14.3 -25.0°
Maximum altitude 04:57:15 66° 186° (S) 2,796 12.0 -25.1°
Drops below altitude 10° 05:08:51 10° 107° (ESE) 4,070 13.1 -25.0°
Sets 05:11:25 0° 104° (ESE) 4,745 13.5 -25.0°
